www.pogodaiklimat.ru
ПОГОДА в Краун-Пойнте

Архив погоды в Краун-Пойнте (Тринидад и Тобаго)

Время
(UTC), дата
12 29.09
15 29.09
18 29.09
21 29.09
00 30.09
03 30.09
06 30.09
12 30.09
18 30.09
21 30.09
00 1.10
03 1.10
06 1.10
09 1.10
12 1.10
15 1.10
18 1.10
21 1.10
00 2.10
03 2.10
06 2.10
09 2.10
12 2.10
15 2.10
18 2.10
21 2.10
00 3.10
03 3.10
06 3.10
09 3.10
12 3.10
15 3.10
18 3.10
21 3.10
00 4.10
03 4.10
06 4.10
09 4.10
12 4.10
15 4.10
18 4.10
21 4.10
00 5.10
03 5.10
06 5.10
09 5.10
12 5.10
15 5.10
18 5.10
21 5.10
00 6.10
03 6.10
Ветер
(напр.,м/с)
Видим. Явления Облачность Т
(С)
Тd
(С)
f
(%)
Тe
(С)
Тes
(С)
Комфортность P
(гПа)
Po
(гПа)
Тmin
(С)
Tmax
(С)
R
(мм)
R24
(мм)
S
(см)
ЮВ 3 6000 м осадки на расстоянии 9/5 240 м
[Cb cap Ac As Cs]
+28.1 +25.7 87 +42 +43 очень
душно
1011.5 1009.5 +25.5 +31.4 4.2
Ю 2 25 км в посл. час гроза {ливн. дождь} 9/5 300 м
[Cu Sc Ac As Cs]
+27.6 +24.7 84 +39 +45 очень
душно
1012.3 1010.3
ЮВ 3 40 км {гроза, ливн. дождь} 9/4 480 м
[Cu Sc Ac As Cs]
+27.6 +25.1 86 +40 +45 очень
душно
1008.9 1006.9 +24.7 +28.5 0.3
ЮВ 2 40 км 9/1 300 м
[Cu Sc Ac trans Cs]
+27.5 +24.8 85 +39 +40 очень
душно
1009.1 1007.1
штиль 0 40 км 9/1 480 м
[Cu Sc Ac trans Ci sp]
+25.9 +22.7 83 +34 +34 очень
душно
1010.2 1008.2 +24.7 +28.4
В 2 40 км 9/1 300 м
[Cu hum Ac trans Ci sp]
+25.3 +22.4 84 +33 +33 очень
душно
1010.9 1008.9
СВ 2 40 км 9/1 480 м
[Cu hum Ac trans Ci sp]
+25.5 +22.9 86 +34 +34 очень
душно
1009.7 1007.7 +24.7 +28.4
ЮВ 5 30 км 8/3 540 м
[Cu Sc Ci sp]
+28.8 +25.5 82 +42 +44 очень
душно
1011.6 1009.6 +25.1 +28.9 0.3
ЮВ 4 18 км осадки на расстоянии 9/3 540 м
[Cu Sc Ac trans Ci sp]
+30.0 +25.8 78 +45 +49 очень
душно
1009.8 1007.8 +25.1 +31.3
ЮВ 4 16 км мгла 9/3 300 м
[Cu Sc Ac trans Cs]
+29.1 +25.6 81 +43 +43 очень
душно
1009.5 1007.5
ЮВ 5 16 км мгла 9/1 480 м
[Cu Sc Ac trans Cs]
+28.7 +25.0 80 +41 +41 очень
душно
1010.4 1008.4 +25.1 +31.3
ЮВ 4 16 км мгла 9/4 300 м
[Cu med, cong Cs]
+28.5 +25.0 81 +41 +41 очень
душно
1011.9 1009.9
ЮВ 4 16 км мгла 9/3 480 м
[Cu hum Ci sp]
+28.2 +25.1 83 +41 +41 очень
душно
1011.1 1009.1 +25.1 +31.3
В 4 16 км мгла 9/1 300 м
[Cu Sc Ci sp]
+28.0 +24.5 81 +39 +39 очень
душно
1011.6 1009.6
В 4 16 км мгла 4/1 600 м
[Cu hum Ci sp]
+29.5 +23.8 71 +40 +43 очень
душно
1013.8 1011.8 +27.7 +31.3
ЮВ 4 20 км мгла 8/5 600 м
[Cu med, cong Ci sp]
+30.9 +24.3 68 +43 +49 очень
душно
1014.8 1012.8
ЮВ 4 17 км осадки на расстоянии 5/3 660 м
[Cu med, cong Ci ing]
+31.1 +23.9 66 +43 +50 очень
душно
1013.0 1011.0 +27.7 +31.8
В 4 25 км 9/3 300 м
[Cu Sc Ac trans Ci ing]
+29.1 +23.0 70 +39 +39 очень
душно
1012.5 1010.5
СВ 2 25 км 9/1 480 м
[Cu Sc Ci sp]
+26.9 +24.4 86 +38 +38 очень
душно
1013.8 1011.8 +26.9 +31.8
СВ 2 18 км осадки на расстоянии 9/1 300 м
[Cu med, cong Ci sp]
+26.4 +24.4 89 +37 +37 очень
душно
1015.0 1013.0
СВ 2 25 км 6/1 480 м
[Cu med, cong Ci sp]
+26.0 +23.9 88 +36 +36 очень
душно
1013.7 1011.7 +25.8 +31.8
СВ 2 25 км 4/1 300 м
[Cu hum Ci sp]
+25.7 +22.8 84 +34 +34 очень
душно
1013.8 1011.8
В 3 30 км 3/1 540 м
[Cu Sc Ac trans Ci sp]
+29.2 +24.9 78 +42 +45 очень
душно
1015.3 1013.3 +25.4 +31.8
СЗ 2 9000 м осадки на расстоянии {ливн. дождь} 5/5 300 м
[Cu Sc Ci sp]
+29.5 +25.4 79 +43 +54 очень
душно
1015.4 1013.4
ЮВ 3 5000 м осадки на расстоянии {ливн. дождь} 6/5 420 м
[Cb cap Ci ing]
+30.7 +25.4 73 +45 +51 очень
душно
1012.9 1010.9 +25.4 +32.3 3
В 2 30 км {ливн. дождь, дождь} 9/1 300 м
[Cu Sc Ac trans Ci ing]
+26.9 +24.4 86 +38 +38 очень
душно
1012.8 1010.8
СВ 2 28 км зарница {ливн. дождь, дождь} 9/3 300 м
[Cb cap Ac trans Cs]
+26.3 +23.6 85 +36 +36 очень
душно
1013.7 1011.7 +25.4 +32.3 5
СВ 2 3000 м гроза, ливневой дождь 9/8 300 м
[Cb cap Ac As]
+25.3 +22.9 87 +34 +34 очень
душно
1015.4 1013.4
С 2 18 км осадки на расстоянии {гроза, ливн. дождь} 9/3 240 м
[Cb cap Ac trans Ci sp]
+24.6 +22.8 90 +33 +33 очень
душно
1012.8 1010.8 +24.1 +32.3 18
С 3 25 км 9/1 300 м
[Cu Sc Cs]
+25.4 +23.5 89 +34 +34 очень
душно
1012.5 1010.5
С 2 12 км осадки на расстоянии {ливн. дождь} 9/6 300 м
[Cb cap Ac As Cs]
+27.0 +23.8 83 +37 +38 очень
душно
1014.4 1012.4 +24.1 +32.3 0.2 25.6
СВ 3 15 км осадки на расстоянии {гроза, ливн. дождь} 9/4 300 м
[Cb cap Ac As Cs]
+30.9 +25.4 73 +45 +51 очень
душно
1014.1 1012.1
С 2 14 км осадки на расстоянии {гроза, ливн. дождь} 9/4 540 м
[Cu Sc Ac trans Ci ing]
+29.1 +24.1 74 +40 +46 очень
душно
1011.4 1009.4 +24.1 +31.6 0.2
В 3 15 км осадки на расстоянии 9/3 300 м
[Cu Sc Ac trans Cs]
+28.9 +23.5 73 +39 +40 очень
душно
1010.6 1008.6
В 3 18 км мгла 9/1 480 м
[Cu Sc Ac trans Cs]
+27.0 +24.1 84 +37 +37 очень
душно
1011.3 1009.3 +24.1 +31.6
В 2 18 км осадки на расстоянии 9/4 300 м
[Cu Sc Ac trans Ci sp]
+26.1 +23.4 85 +35 +35 очень
душно
1012.2 1010.2
СВ 2 18 км осадки на расстоянии 9/3 480 м
[Cu Sc Ac trans Cs]
+25.7 +24.1 91 +36 +36 очень
душно
1010.5 1008.5 +24.1 +31.6
штиль 0 18 км мгла 9/3 300 м
[Cu Sc Ac trans Ci sp]
+25.1 +24.2 95 +35 +35 очень
душно
1010.3 1008.3
В 2 18 км мгла 8/3 360 м
[Cb cap Ac trans Ci ing]
+29.8 +25.6 78 +44 +46 очень
душно
1012.0 1010.0 +24.1 +31.6 0.2
штиль 0 10 км осадки на расстоянии {ливн. дождь} 9/8 300 м
[Cu Sc Ac trans Ci sp]
+26.6 +25.6 94 +39 +43 очень
душно
1012.1 1010.1
З 2 16 км осадки на расстоянии {ливн. дождь} 9/3 420 м
[Cb cap Ac trans Ci sp]
+30.2 +25.6 76 +44 +50 очень
душно
1008.8 1006.8 +24.7 +31.3 30
С 2 35 км 5/1 300 м
[Cb cap Ac trans Ci sp]
+28.7 +24.7 79 +41 +42 очень
душно
1008.3 1006.3
С 3 30 км 8/1 480 м
[Cu Sc Ac trans Ci sp]
+27.6 +22.7 75 +37 +37 очень
душно
1009.1 1007.1 +24.7 +31.3
СВ 2 18 км осадки на расстоянии 9/1 300 м
[Cu Sc Ac As Cs]
+27.4 +23.1 77 +37 +37 очень
душно
1009.3 1007.3
штиль 0 13 км гроза без осадков 9/5 300 м
[Cb cap Ac As Cs]
+26.8 +23.1 80 +36 +36 очень
душно
1007.6 1005.6 +24.7 +31.3
В 2 14 км слаб. дождь {гроза, ливн. дождь} 9/6 480 м
[Cb cap Ac As Cs]
+25.9 +23.9 89 +36 +36 очень
душно
1006.9 1004.9
С 2 5000 м слаб. дождь {гроза, ливн. дождь} 10/8 300 м
[Cb cap Ac As]
+24.6 +24.6 100 +34 +35 очень
душно
1008.9 1006.9 +24.6 +31.3 12 41.1
ЮВ 4 10 км слаб. дождь 10/8 240 м
[Cu Sc Ac As]
+25.0 +24.5 97 +35 +36 очень
душно
1010.1 1008.1
ЮВ 4 1400 м дождь 10/9 210 м
[Cb cap Ac As]
+23.5 +23.3 99 +32 +32 очень
душно
1009.1 1007.1 +22.7 +25.5
Ю 3 5000 м слаб. дождь 10/6 360 м
[Cu Sc Ac As]
+24.9 +23.6 92 +34 +34 очень
душно
1008.4 1006.4
ЮВ 4 18 км осадки на расстоянии {дождь} 10/4 420 м
[Cu Sc Ac As Cs]
+27.8 +25.5 87 +41 +41 очень
душно
1009.7 1007.9 +22.7 +27.9 6
Ю 7 2000 м ливневой дождь {гроза} 10/9 240 м
[Cb cap]
+24.0 +23.8 99 +33 +33 очень
душно
1011.5 1009.8
Местоположение метеостанции Краун-Пойнт (Тринидад и Тобаго): широта 11.15 долгота -60.83 высота над уровнем моря 6 м.
В архиве по умолчанию представлена погода в Краун-Пойнте за последнюю неделю. Архивные данные за месяц целиком и за предыдущие месяцы, начиная с января 2011 года, Вы можете получить, выбрав интересующий диапазон дат из раскрывающегося списка и нажав кнопку "Найти!".
*Определитесь, кто Вы:
Внимание! Время в таблицах - всемирное. Для получения местного времени необходимо прибавить поправку, которая равна -4 ч.
Смотрите также архив погоды в соседних городах и на ближайших метеорологических станциях:
Партнеры нашего сайта:      
Пояснения к столбцам:
  • Ветер - указаны скорость ветра в м/с - средняя за 10 мин, порывы в срок и между сроками (в фигурных скобках) и направление, откуда дует ветер: С - северный,
  • СВ - северо-восточный, В - восточный, ЮВ - юго-восточный, Ю - южный, ЮЗ - юго-западный, З - западный, СЗ - северо-западный.
  • Видимость - горизонтальная дальность видимости в метрах или километрах. При видимости от 1 до 10 км при отсутствии осадков обычно наблюдается дымка, при ухудшении видимости до 1 км и менее - туман. В сухую погоду видимость может ухудшаться дымом, пылью или мглою.
  • Явления - указаны атмосферные явления, наблюдавшиеся в срок или в последний час перед сроком; фигурными скобками обозначены явления, наблюдавшиеся между сроками (за 1-3 часа до срока); квадратными скобками обозначены град или гололедные отложения с указанием их диаметра в мм.
  • Облачность - указаны через наклонную черту общая и нижняя облачность в баллах и высота нижней границы облаков в метрах; квадратными скобками обозначены формы облаков: Ci - перистые, Cs - перисто-слоистые, Cc - перисто-кучевые, Ac - высококучевые, As - высокослоистые, Sc - слоисто-кучевые, Ns - слоисто-дождевые, Cu - кучевые, Cb - кучево-дождевые. Подробнее классификацию облаков см. в Атласе облаков (PDF).
  • T - Температура воздуха - температура, измеренная на высоте 2 м над землей.
  • Td - Температура точки росы - температура, при понижении до которой содержащийся в воздухе водяной пар достигнет насыщения.
  • f - Относительная влажность воздуха - влажноcть воздуха, измеренная на высоте 2 м над землей.
  • Te - Эффективная температура - температура, которую ощущает одетый по сезону человек в тени. Характеристика душности погоды. При расчете учитывается влияние влажности воздуха и скорости ветра на теплоощущения человека.
  • Tes - Эффективная температура на солнце - температура, которую ощущает человек, с поправкой на солнечный нагрев. Характеристика знойности погоды. Зависит от высоты солнца над горизонтом, облачности и скорости ветра. Ночью, в пасмурную погоду, а также при ветре 12 м/с и более поправка равна нулю.
  • P - Атмосферное давление - приведенное к уровню моря атмосферное давление.
  • Po - Атмосферное давление - измеренное на уровне метеостанции атмосферное давление.
  • Tmin - Минимальная температура - минимум температуры воздуха на высоте 2 м над землей.
  • Tmax - Максимальная температура - максимум температуры воздуха на высоте 2 м над землей.
  • R - Количество осадков - Количество выпавших осадков за период времени, мм. При наведении курсора мыши на число - период времени, за который выпало указанное количество осадков.
  • R24 - Количество осадков - Количество выпавших осадков за 24 часа, мм.
  • S - Снежный покров - Высота снежного покрова, см. При наведении курсора мыши на число - состояние снежного покрова и степень покрытия местности в баллах.